TimeCDT,TemperatureF,Dew PointF,Humidity,Sea Level PressureIn,VisibilityMPH,Wind Direction,Wind SpeedMPH,Gust SpeedMPH,PrecipitationIn,Events,Conditions,WindDirDegrees,DateUTC
12:52 AM,57.9,57.0,97,30.02,7.0,East,11.5,-,N/A,,Overcast,80,2013-05-27 05:52:00
1:20 AM,57.2,57.2,100,30.01,5.0,East,10.4,-,N/A,,Overcast,90,2013-05-27 06:20:00
1:52 AM,57.9,55.9,93,30.02,4.0,NE,6.9,-,N/A,,Overcast,50,2013-05-27 06:52:00
2:08 AM,57.2,55.4,94,30.02,4.0,ENE,6.9,-,N/A,Thunderstorm,Overcast,70,2013-05-27 07:08:00
2:33 AM,57.2,55.4,94,30.00,3.0,ENE,12.7,-,0.00,Rain,Heavy Rain,70,2013-05-27 07:33:00
2:50 AM,57.2,55.4,94,30.00,4.0,ENE,11.5,-,0.04,Rain,Light Rain,70,2013-05-27 07:50:00
2:52 AM,57.9,55.9,93,30.01,4.0,East,11.5,-,0.04,Rain,Rain,80,2013-05-27 07:52:00
3:02 AM,57.2,55.4,94,30.00,4.0,East,8.1,-,0.03,Rain,Rain,100,2013-05-27 08:02:00
3:52 AM,59.0,57.0,93,29.98,8.0,SE,9.2,-,0.08,,Overcast,130,2013-05-27 08:52:00
4:49 AM,59.0,57.2,94,29.93,2.5,Variable,4.6,17.3,0.04,Rain,Heavy Rain,0,2013-05-27 09:49:00
4:52 AM,57.9,57.0,97,29.94,2.0,NNE,8.1,-,0.06,Rain,Heavy Rain,20,2013-05-27 09:52:00
5:01 AM,59.0,57.2,94,29.95,3.0,East,9.2,-,0.05,Rain,Rain,80,2013-05-27 10:01:00
5:52 AM,57.9,57.0,97,29.95,4.0,East,11.5,-,0.05,,Overcast,80,2013-05-27 10:52:00
6:52 AM,59.0,57.0,93,29.96,4.0,East,6.9,-,N/A,,Overcast,90,2013-05-27 11:52:00
7:52 AM,60.1,57.9,93,29.99,3.0,ESE,4.6,-,N/A,,Overcast,110,2013-05-27 12:52:00
8:14 AM,60.8,57.2,88,29.98,2.5,East,10.4,-,N/A,,Overcast,100,2013-05-27 13:14:00
8:52 AM,60.1,57.9,93,29.97,2.5,East,9.2,-,N/A,,Overcast,100,2013-05-27 13:52:00
9:52 AM,62.1,59.0,90,29.92,2.0,ESE,6.9,-,N/A,,Overcast,120,2013-05-27 14:52:00
10:30 AM,62.6,60.8,94,29.89,2.0,ESE,11.5,-,N/A,,Overcast,120,2013-05-27 15:30:00
10:52 AM,63.0,60.1,90,29.91,3.0,SE,6.9,-,N/A,,Overcast,130,2013-05-27 15:52:00
11:52 AM,64.9,62.1,90,29.91,6.0,ESE,8.1,-,N/A,,Overcast,110,2013-05-27 16:52:00
12:35 PM,66.2,62.6,88,29.91,9.0,SSE,5.8,-,N/A,,Overcast,160,2013-05-27 17:35:00
12:52 PM,66.9,63.0,87,29.91,8.0,SE,5.8,-,N/A,,Overcast,140,2013-05-27 17:52:00
1:52 PM,68.0,64.0,87,29.86,8.0,ESE,9.2,-,0.00,Rain,Light Rain,110,2013-05-27 18:52:00
2:37 PM,69.8,64.4,83,29.86,8.0,ESE,12.7,-,0.01,,Overcast,110,2013-05-27 19:37:00
2:52 PM,68.0,64.0,87,29.84,8.0,ESE,13.8,-,0.01,,Overcast,110,2013-05-27 19:52:00
3:52 PM,69.1,64.0,84,29.80,7.0,East,15.0,-,N/A,,Overcast,100,2013-05-27 20:52:00
4:09 PM,69.8,64.4,83,29.80,7.0,East,16.1,-,N/A,,Overcast,90,2013-05-27 21:09:00
4:44 PM,69.8,64.4,83,29.80,9.0,ESE,18.4,-,N/A,,Overcast,110,2013-05-27 21:44:00
4:52 PM,70.0,63.0,78,29.80,9.0,ESE,15.0,-,N/A,,Overcast,110,2013-05-27 21:52:00
5:52 PM,72.0,64.0,76,29.78,9.0,East,15.0,-,N/A,,Mostly Cloudy,90,2013-05-27 22:52:00
6:52 PM,70.0,64.0,81,29.79,7.0,SE,11.5,-,N/A,,Mostly Cloudy,130,2013-05-27 23:52:00
6:59 PM,69.8,64.4,83,29.79,7.0,SE,12.7,-,N/A,,Overcast,130,2013-05-27 23:59:00
7:23 PM,69.8,64.4,83,29.80,6.0,ESE,10.4,-,N/A,,Haze,120,2013-05-28 00:23:00
7:52 PM,69.1,64.0,84,29.80,6.0,ESE,9.2,-,N/A,,Haze,110,2013-05-28 00:52:00
8:45 PM,68.0,64.4,88,29.80,8.0,East,6.9,-,N/A,,Overcast,100,2013-05-28 01:45:00
8:52 PM,68.0,64.0,87,29.80,7.0,East,5.8,-,N/A,,Overcast,100,2013-05-28 01:52:00
9:52 PM,66.9,64.9,93,29.81,6.0,ESE,3.5,-,0.08,,Overcast,110,2013-05-28 02:52:00
9:59 PM,66.2,64.4,94,29.81,6.0,East,3.5,-,N/A,,Overcast,100,2013-05-28 02:59:00
10:52 PM,66.0,64.9,96,29.81,6.0,East,5.8,-,N/A,,Overcast,80,2013-05-28 03:52:00
11:52 PM,66.0,64.0,93,29.79,7.0,East,4.6,-,0.01,,Overcast,90,2013-05-28 04:52:00